Location: Altleiningen
(49.5078°N, 8.0741°E)
Time: 11:52:43
(UTC+00:00)

SL-16 R/B - Pass Details

Date: 03 March 2021
Orbit: 842 x 846 km, 71.0° (Epoch: 13 April)

Event Time Altitude Azimuth Distance (km) Brightness Sun altitude
Rises 17:47:13 0° 194° (SSW) 3,388 5.6 -6.2°
Reaches altitude 10° 17:49:40 10° 191° (S) 2,458 4.8 -6.6°
Maximum altitude 17:55:12 60° 112° (ESE) 968 2.3 -7.5°
Drops below altitude 10° 18:00:47 10° 35° (NE) 2,477 4.3 -8.4°
Sets 18:03:16 0° 32° (NNE) 3,417 5.0 -8.8°
